Change the Weather History Date:

Saturday, January 5, 2013

  Actual Average Record
Temperature  
Mean Temperature 24 °F 21 °F  
Max Temperature 35 °F 31 °F 60 °F (1950)
Min Temperature 12 °F 11 °F -18 °F (1996)
Degree Days  
Heating Degree Days 41 44  
Month to date heating degree days 245 218  
Since 1 July heating degree days 2765 2964  
Cooling Degree Days 0 0  
Month to date cooling degree days 0 0  
Year to date cooling degree days 0 0  
Moisture  
Dew Point 16 °F    
Average Humidity 67    
Maximum Humidity 92    
Minimum Humidity 41    
Precipitation  
Precipitation T in 0.09 in 1.31 in (1917)
Month to date precipitation T 0.45  
Year to date precipitation T 0.45  
Snow  
Snow T in 0.60 in 16.80 in (1924)
Month to date snowfall T 2.8  
Since 1 July snowfall 14.4 19.9  
Snow Depth 6.00 in    
Sea Level Pressure  
Sea Level Pressure 30.08 in    
Wind  
Wind Speed 8 mph (WNW)    
Max Wind Speed 26 mph    
Max Gust Speed 36 mph    
Visibility 10 miles    
Events      
T = Trace of Precipitation, MM = Missing Value Source: NWS Daily Summary

Daily Weather History Graph

Daily Weather History Graph

Search for Another Location

Airport or City:

Trip Planner

Search our weather history database for the weather conditions in past years. The results will help you decide how hot, cold, wet, or windy it might be!

Date:

Astronomy

Jan. 05, 2013 Rise Set
Actual Time 7:18 AM EST 4:25 PM EST
Civil Twilight 6:45 AM EST 4:57 PM EST
Nautical Twilight 6:10 AM EST 5:33 PM EST
Astronomical Twilight 5:35 AM EST 6:07 PM EST
Moon 12:15 AM EST (1/5) 11:18 AM EST (1/5)
Length of Visible Light 10h 11m
Length of Day
9h 07m
Last Quarter, 44% of the Moon is Illuminated
Jan 5
Last Quarter
Jan 11
New
Jan 18
First Quarter
Jan 26
Full
Feb 3
Last Quarter

Hourly Weather History & Observations

Time (EST) Temp. Windchill Dew Point Humidity Pressure Visibility Wind Dir Wind Speed Gust Speed Precip Events Conditions
12:51 AM 33.1 °F 26.1 °F 21.0 °F 61% 29.80 in 10.0 mi West 8.1 mph - N/A   Overcast
1:51 AM 32.0 °F 25.6 °F 23.0 °F 69% 29.83 in 10.0 mi West 6.9 mph - N/A   Overcast
2:51 AM 30.0 °F 24.1 °F 21.9 °F 72% 29.84 in 10.0 mi West 5.8 mph - 0.00 in   Clear
3:51 AM 30.9 °F 26.2 °F 23.0 °F 72% 29.85 in 10.0 mi West 4.6 mph - N/A   Overcast
4:51 AM 32.0 °F 23.0 °F 21.2 °F 64% 29.85 in 10.0 mi West 11.5 mph 20.7 mph N/A   Partly Cloudy
5:51 AM 33.1 °F 23.9 °F 21.0 °F 61% 29.91 in 10.0 mi West 12.7 mph - N/A   Scattered Clouds
6:51 AM 32.0 °F 22.5 °F 21.2 °F 64% 29.93 in 10.0 mi West 12.7 mph - N/A   Partly Cloudy
7:51 AM 32.0 °F 22.5 °F 21.0 °F 64% 30.00 in 10.0 mi NW 12.7 mph - N/A   Scattered Clouds
8:51 AM 33.1 °F 22.2 °F 16.0 °F 50% 30.05 in 10.0 mi NW 17.3 mph 24.2 mph N/A   Clear
9:51 AM 33.8 °F 22.8 °F 12.2 °F 41% 30.08 in 10.0 mi NW 18.4 mph 32.2 mph N/A   Clear
10:51 AM 33.1 °F 21.9 °F 12.0 °F 42% 30.13 in 10.0 mi NW 18.4 mph 28.8 mph N/A   Clear
11:51 AM 34.0 °F 24.6 °F 12.9 °F 42% 30.14 in 10.0 mi WNW 13.8 mph 23.0 mph N/A   Clear
12:51 PM 34.0 °F 24.2 °F 14.0 °F 44% 30.15 in 10.0 mi WNW 15.0 mph 20.7 mph N/A   Partly Cloudy
1:51 PM 34.0 °F 26.0 °F 14.0 °F 44% 30.17 in 10.0 mi West 10.4 mph 19.6 mph N/A   Clear
2:51 PM 33.1 °F 26.1 °F 14.0 °F 46% 30.17 in 10.0 mi NW 8.1 mph - N/A   Clear
3:51 PM 32.0 °F 25.6 °F 12.9 °F 45% 30.17 in 10.0 mi North 6.9 mph - N/A   Clear
4:51 PM 28.0 °F 22.8 °F 12.9 °F 53% 30.22 in 10.0 mi WNW 4.6 mph - N/A   Clear
5:51 PM 26.1 °F 20.5 °F 12.9 °F 58% 30.23 in 10.0 mi East 4.6 mph - N/A   Clear
6:51 PM 21.9 °F - 12.9 °F 68% 30.25 in 10.0 mi Calm Calm - N/A   Clear
7:51 PM 21.0 °F - 12.9 °F 71% 30.25 in 10.0 mi Calm Calm - N/A   Clear
8:51 PM 14.0 °F - 10.9 °F 88% 30.24 in 10.0 mi Calm Calm - N/A   Clear
9:51 PM 16.0 °F - 12.0 °F 84% 30.24 in 10.0 mi Calm Calm - N/A   Clear
10:51 PM 12.9 °F - 10.9 °F 92% 30.24 in 10.0 mi Calm Calm - N/A   Clear
11:51 PM 14.0 °F - 10.4 °F 86% 30.20 in 10.0 mi Calm Calm - N/A   Clear